2023/07/28 00:00:00, 0.2,21.9
2023/07/28 00:10:00, 0.2,21.5
2023/07/28 00:20:00, 0.2,21.9
2023/07/28 00:30:00, 0.2,21.8
2023/07/28 00:40:00, 0.2,21.9
2023/07/28 00:50:00, 0.2,21.7
2023/07/28 01:00:00, 0.2,21.9
2023/07/28 01:10:00, 0.2,22.1
2023/07/28 01:20:00, 0.2,21.7
2023/07/28 01:30:00, 0.2,21.9
2023/07/28 01:40:00, 0.2,21.9
2023/07/28 01:50:00, 0.2,21.8
2023/07/28 02:00:00, 0.2,21.5
2023/07/28 02:10:00, 0.2,21.7
2023/07/28 02:20:00, 0.2,21.6
2023/07/28 02:30:00, 0.2,21.5
2023/07/28 02:40:00, 0.2,21.4
2023/07/28 02:50:00, 0.2,21.7
2023/07/28 03:00:00, 0.2,21.6
2023/07/28 03:10:00, 0.2,22.1
2023/07/28 03:20:00, 0.2,21.5
2023/07/28 03:30:00, 0.2,21.4
2023/07/28 03:40:00, 0.2,21.5
2023/07/28 03:50:00, 0.2,21.5
2023/07/28 04:00:00, 0.2,21.5
2023/07/28 04:10:00, 0.2,21.5
2023/07/28 04:20:00, 0.2,21.5
2023/07/28 04:30:00, 0.2,21.4
2023/07/28 04:40:00, 0.2,21.4
2023/07/28 04:50:00, 0.2,21.3
2023/07/28 05:00:00, 0.2,21.4
2023/07/28 05:10:00, 0.2,21.0
2023/07/28 05:20:00, 0.2,20.8
2023/07/28 05:30:00, 0.2,21.1
2023/07/28 05:40:00, 0.2,21.2
2023/07/28 05:50:00, 0.2,21.2
2023/07/28 06:00:00, 0.2,21.3
2023/07/28 06:10:00, 0.2,21.0
2023/07/28 06:20:00, 0.2,21.4
2023/07/28 06:30:00, 0.2,22.0
2023/07/28 06:40:00, 0.2,21.9
2023/07/28 06:50:00, 0.2,22.5
2023/07/28 07:00:00, 0.2,23.1
2023/07/28 07:10:00, 0.3,23.5
2023/07/28 07:20:00, 0.3,24.0
2023/07/28 07:30:00, 0.3,24.3
2023/07/28 07:40:00, 0.3,24.7
2023/07/28 07:50:00, 0.2,25.1
2023/07/28 08:00:00, 0.3,25.6
2023/07/28 08:10:00, 0.2,26.0
2023/07/28 08:20:00, 0.2,26.7
2023/07/28 08:30:00, 0.2,27.2
2023/07/28 08:40:00, 0.2,27.9
2023/07/28 08:50:00, 0.2,28.3
2023/07/28 09:00:00, 0.2,29.1
2023/07/28 09:10:00, 0.2,29.4
2023/07/28 09:20:00, 0.2,29.8
2023/07/28 09:30:00, 0.1,30.3
2023/07/28 09:40:00, 0.1,30.8
2023/07/28 09:50:00, 0.1,31.3
2023/07/28 10:00:00, 0.2,31.8
2023/07/28 10:10:00, 0.4,32.5
2023/07/28 10:20:00, 0.4,32.9
2023/07/28 10:30:00, 0.5,33.5
2023/07/28 10:40:00, 0.5,33.2
2023/07/28 10:50:00, 0.5,33.6
2023/07/28 11:00:00, 0.5,34.4
2023/07/28 11:10:00, 0.6,34.6
2023/07/28 11:20:00, 0.6,33.9
2023/07/28 11:30:00, 0.5,34.8
2023/07/28 11:40:00, 0.6,34.9
2023/07/28 11:50:00, 0.5,35.8
2023/07/28 12:00:00, 0.5,36.1
2023/07/28 12:10:00, 0.5,36.4
2023/07/28 12:20:00, 0.5,36.4
2023/07/28 12:30:00, 0.5,36.1
2023/07/28 12:40:00, 0.5,36.2
2023/07/28 12:50:00, 0.5,37.0
2023/07/28 13:00:00, 0.5,36.7
2023/07/28 13:10:00, 0.5,37.6
2023/07/28 13:20:00, 0.6,37.6
2023/07/28 13:30:00, 0.5,37.8
2023/07/28 13:40:00, 0.5,38.4
2023/07/28 13:50:00, 0.5,38.1
2023/07/28 14:00:00, 0.5,37.1
2023/07/28 14:10:00, 0.5,37.1
2023/07/28 14:20:00, 0.5,37.1
2023/07/28 14:30:00, 0.5,37.9
2023/07/28 14:40:00, 0.4,36.4
2023/07/28 14:50:00, 0.4,36.8
2023/07/28 15:00:00, 0.4,36.3
2023/07/28 15:10:00, 0.4,37.0
2023/07/28 15:20:00, 0.4,36.5
2023/07/28 15:30:00, 0.3,34.9
2023/07/28 15:40:00, 0.4,36.2
2023/07/28 15:50:00, 0.4,35.8
2023/07/28 16:00:00, 0.4,37.3
2023/07/28 16:10:00, 0.4,35.7
2023/07/28 16:20:00, 0.3,33.2
2023/07/28 16:30:00, 0.3,34.4
2023/07/28 16:40:00, 0.3,32.6
2023/07/28 16:50:00, 0.4,32.1
2023/07/28 17:00:00, 0.4,33.6
2023/07/28 17:10:00, 0.4,39.1
2023/07/28 17:20:00, 0.4,33.7
2023/07/28 17:30:00, 0.4,32.8
2023/07/28 17:40:00, 0.3,31.4
2023/07/28 17:50:00, 0.3,30.5
2023/07/28 18:00:00, 0.3,30.1
2023/07/28 18:10:00, 0.2,29.4
2023/07/28 18:20:00, 0.1,26.8
2023/07/28 18:30:00, 0.1,26.5
2023/07/28 18:40:00, 0.1,26.0
2023/07/28 18:50:00, 0.1,26.0
2023/07/28 19:00:00, 0.1,25.4
2023/07/28 19:10:00, 0.1,25.3
2023/07/28 19:20:00, 0.1,24.8
2023/07/28 19:30:00, 0.2,24.3
2023/07/28 19:40:00, 0.2,24.0
2023/07/28 19:50:00, 0.1,24.0
2023/07/28 20:00:00, 0.2,23.8
2023/07/28 20:10:00, 0.2,23.9
2023/07/28 20:20:00, 0.1,23.9
2023/07/28 20:30:00, 0.2,23.7
2023/07/28 20:40:00, 0.2,23.8
2023/07/28 20:50:00, 0.2,23.7
2023/07/28 21:00:00, 0.2,23.7
2023/07/28 21:10:00, 0.2,23.5
2023/07/28 21:20:00, 0.2,23.7
2023/07/28 21:30:00, 0.2,23.7
2023/07/28 21:40:00, 0.2,23.7
2023/07/28 21:50:00, 0.2,23.5
2023/07/28 22:00:00, 0.2,23.2
2023/07/28 22:10:00, 0.2,23.4
2023/07/28 22:20:00, 0.2,23.2
2023/07/28 22:30:00, 0.2,22.7
2023/07/28 22:40:00, 0.2,23.3
2023/07/28 22:50:00, 0.2,23.2
2023/07/28 23:00:00, 0.2,23.3
2023/07/28 23:10:00, 0.2,23.3
2023/07/28 23:20:00, 0.2,23.2
2023/07/28 23:30:00, 0.2,23.6
2023/07/28 23:40:00, 0.2,22.6
2023/07/28 23:50:00, 0.2,23.3
